TimeEST,TemperatureF,Dew PointF,Humidity,Sea Level PressureIn,VisibilityMPH,Wind Direction,Wind SpeedMPH,Gust SpeedMPH,PrecipitationIn,Events,Conditions,WindDirDegrees,DateUTC
12:56 AM,57.9,45.0,62,30.16,10.0,ENE,6.9,-,N/A,,Overcast,70,2012-12-06 05:56:00
1:56 AM,57.0,45.0,64,30.16,10.0,NE,6.9,-,N/A,,Overcast,40,2012-12-06 06:56:00
2:56 AM,57.0,43.0,59,30.17,10.0,NE,6.9,-,N/A,,Overcast,50,2012-12-06 07:56:00
3:56 AM,57.0,44.1,62,30.16,10.0,NE,5.8,-,N/A,,Overcast,50,2012-12-06 08:56:00
4:56 AM,57.0,39.9,53,30.17,10.0,ENE,10.4,-,N/A,,Overcast,60,2012-12-06 09:56:00
5:56 AM,55.0,37.0,51,30.18,10.0,ENE,8.1,-,N/A,,Overcast,60,2012-12-06 10:56:00
6:56 AM,55.0,30.9,40,30.20,10.0,NE,9.2,-,N/A,,Overcast,50,2012-12-06 11:56:00
7:56 AM,54.0,30.0,40,30.21,10.0,NE,10.4,-,N/A,,Overcast,50,2012-12-06 12:56:00
8:56 AM,53.1,30.9,43,30.23,10.0,NE,10.4,-,N/A,,Overcast,50,2012-12-06 13:56:00
9:56 AM,53.1,33.1,47,30.24,10.0,NE,9.2,-,N/A,,Overcast,50,2012-12-06 14:56:00
10:16 AM,53.6,33.8,47,30.25,10.0,ENE,9.2,-,N/A,,Overcast,60,2012-12-06 15:16:00
10:56 AM,53.1,36.0,52,30.25,10.0,ENE,8.1,-,N/A,,Overcast,60,2012-12-06 15:56:00
11:56 AM,53.1,37.0,55,30.22,10.0,ENE,9.2,-,N/A,,Overcast,60,2012-12-06 16:56:00
12:56 PM,52.0,39.0,61,30.20,10.0,ENE,12.7,-,N/A,,Overcast,70,2012-12-06 17:56:00
1:56 PM,53.1,37.9,57,30.18,10.0,East,11.5,-,N/A,,Overcast,80,2012-12-06 18:56:00
2:56 PM,53.1,39.0,59,30.17,10.0,ENE,9.2,-,N/A,,Overcast,60,2012-12-06 19:56:00
3:56 PM,53.1,39.9,61,30.17,10.0,East,8.1,-,N/A,,Overcast,80,2012-12-06 20:56:00
4:56 PM,52.0,39.9,63,30.17,10.0,ENE,8.1,-,N/A,,Overcast,70,2012-12-06 21:56:00
5:56 PM,51.1,39.0,63,30.19,10.0,ENE,9.2,-,N/A,,Overcast,60,2012-12-06 22:56:00
6:56 PM,51.1,39.0,63,30.19,10.0,ENE,9.2,-,N/A,,Overcast,70,2012-12-06 23:56:00
7:56 PM,51.1,39.0,63,30.19,10.0,East,11.5,-,N/A,,Overcast,80,2012-12-07 00:56:00
8:45 PM,35.6,26.6,70,29.95,12.0,NW,11.5,17.3,N/A,,Mostly Cloudy,310,2012-12-07 01:45:00
8:56 PM,50.0,39.0,66,30.19,10.0,ENE,8.1,-,N/A,,Overcast,70,2012-12-07 01:56:00
9:56 PM,50.0,39.0,66,30.19,10.0,ENE,12.7,-,N/A,,Overcast,60,2012-12-07 02:56:00
10:56 PM,50.0,37.0,61,30.19,10.0,ENE,9.2,-,N/A,,Overcast,70,2012-12-07 03:56:00
11:56 PM,48.9,35.1,59,30.19,10.0,ENE,10.4,-,N/A,,Overcast,70,2012-12-07 04:56:00